Location: Cedar Brake
(32.2526°N, 97.8459°W)
Time: 07:30:45
(UTC+00:00)

Terra - Pass Details

Date: 22 April 2026
Orbit: 688 x 691 km, 97.9° (Epoch: 15 May)

Event Time Altitude Azimuth Distance (km) Brightness Sun altitude
Exits shadow 03:06:05 71° 171° (S) 729 1.6 -24.1°
Maximum altitude 03:06:36 89° 251° (WSW) 693 1.7 -24.2°
Drops below altitude 10° 03:11:18 10° 348° (NNW) 2,142 4.9 -25.0°
Sets 03:13:33 0° 348° (NNW) 3,061 5.8 -25.4°
